Year,Month,Day,Hour,Minute,Value (Times are PST for temperature in C)
2008,08,20,00,00,15.30
2008,08,20,00,01,15.30
2008,08,20,00,02,15.30
2008,08,20,00,03,15.30
2008,08,20,00,04,15.30
2008,08,20,00,05,15.30
2008,08,20,00,06,15.30
2008,08,20,00,07,15.30
2008,08,20,00,08,15.30
2008,08,20,00,09,15.30
2008,08,20,00,10,15.30
2008,08,20,00,11,15.30
2008,08,20,00,12,15.30
2008,08,20,01,02,15.10
2008,08,20,01,03,15.10
2008,08,20,01,04,15.10
2008,08,20,01,05,15.10
2008,08,20,01,06,15.10
2008,08,20,01,07,15.10
2008,08,20,01,08,15.10
2008,08,20,01,09,15.10
2008,08,20,01,10,15.10
2008,08,20,01,11,15.10
2008,08,20,01,12,15.10
2008,08,20,01,13,15.10
2008,08,20,01,14,15.00
2008,08,20,01,15,15.00
2008,08,20,01,16,15.00
2008,08,20,01,17,15.00
2008,08,20,01,18,15.00
2008,08,20,01,19,15.00
2008,08,20,01,20,15.00
2008,08,20,01,21,15.00
2008,08,20,01,22,15.00
2008,08,20,01,23,15.00
2008,08,20,01,24,15.00
2008,08,20,01,25,15.00
2008,08,20,01,26,15.00
2008,08,20,01,27,15.00
2008,08,20,01,28,15.00
2008,08,20,01,29,15.00
2008,08,20,01,30,15.00
2008,08,20,01,31,15.00
2008,08,20,01,32,15.00
2008,08,20,01,33,15.00
2008,08,20,01,34,15.00
2008,08,20,01,35,15.00
2008,08,20,01,36,15.00
2008,08,20,01,37,15.00
2008,08,20,01,38,15.00
2008,08,20,01,39,15.00
2008,08,20,01,40,15.00
2008,08,20,01,41,15.00
2008,08,20,01,42,15.00
2008,08,20,01,43,15.00
2008,08,20,01,44,15.00
2008,08,20,01,45,15.00
2008,08,20,01,46,15.00
2008,08,20,01,47,15.00
2008,08,20,01,48,15.00
2008,08,20,01,49,15.00
2008,08,20,01,50,15.00
2008,08,20,01,51,15.00
2008,08,20,01,52,15.00
2008,08,20,01,53,15.00
2008,08,20,01,54,15.00
2008,08,20,01,55,15.00
2008,08,20,01,56,15.00
2008,08,20,01,57,15.00
2008,08,20,01,58,15.00
2008,08,20,01,59,15.00
2008,08,20,02,00,15.00
2008,08,20,02,01,15.00
2008,08,20,02,02,15.00
2008,08,20,02,03,15.00
2008,08,20,02,04,15.00
2008,08,20,02,05,15.00
2008,08,20,02,06,15.00
2008,08,20,02,07,15.00
2008,08,20,02,08,15.00
2008,08,20,02,09,15.00
2008,08,20,02,10,15.00
2008,08,20,02,11,15.00
2008,08,20,02,12,15.00
2008,08,20,02,13,15.00
2008,08,20,02,14,15.00
2008,08,20,02,15,15.00
2008,08,20,02,16,15.00
2008,08,20,02,17,15.00
2008,08,20,02,18,15.00
2008,08,20,02,19,15.00
2008,08,20,02,20,15.00
2008,08,20,02,21,15.00
2008,08,20,02,22,15.00
2008,08,20,02,23,15.00
2008,08,20,02,24,15.00
2008,08,20,02,25,15.00
2008,08,20,02,26,15.00
2008,08,20,02,27,15.00
2008,08,20,02,28,15.00
2008,08,20,02,29,15.00
2008,08,20,02,30,15.00
2008,08,20,02,31,15.00
2008,08,20,02,32,15.00
2008,08,20,02,33,15.00
2008,08,20,02,34,15.00
2008,08,20,02,35,15.00
2008,08,20,02,36,15.00
2008,08,20,02,37,15.00
2008,08,20,02,38,15.00
2008,08,20,02,39,15.00
2008,08,20,02,40,15.00
2008,08,20,02,41,15.00
2008,08,20,02,42,15.00
2008,08,20,02,43,15.00
2008,08,20,02,44,15.00
2008,08,20,02,45,15.00
2008,08,20,02,46,15.00
2008,08,20,02,47,15.00
2008,08,20,02,48,15.00
2008,08,20,02,49,15.00
2008,08,20,02,50,15.00
2008,08,20,02,51,15.00
2008,08,20,02,52,15.00
2008,08,20,02,53,15.00
2008,08,20,02,54,15.00
2008,08,20,02,55,15.00
2008,08,20,02,56,15.00
2008,08,20,02,57,15.00
2008,08,20,02,58,15.00
2008,08,20,02,59,15.00
2008,08,20,03,00,15.00
2008,08,20,03,01,15.00
2008,08,20,03,02,15.00
2008,08,20,03,03,15.00
2008,08,20,03,04,15.00
2008,08,20,03,05,15.00
2008,08,20,03,06,15.00
2008,08,20,03,07,15.00
2008,08,20,03,08,15.00
2008,08,20,03,09,15.00
2008,08,20,03,10,15.00
2008,08,20,03,11,15.00
2008,08,20,03,12,15.00
2008,08,20,03,13,15.00
2008,08,20,03,14,15.00
2008,08,20,03,15,15.00
2008,08,20,03,16,15.00
2008,08,20,03,17,15.00
2008,08,20,03,18,15.00
2008,08,20,03,19,15.00
2008,08,20,03,20,15.00
2008,08,20,03,21,15.00
2008,08,20,03,22,15.00
2008,08,20,03,23,15.00
2008,08,20,03,24,15.00
2008,08,20,03,25,15.00
2008,08,20,03,26,15.00
2008,08,20,03,27,15.00
2008,08,20,03,28,15.00
2008,08,20,03,29,15.00
2008,08,20,03,30,15.00
2008,08,20,03,31,15.00
2008,08,20,03,32,15.00
2008,08,20,03,33,15.00
2008,08,20,03,34,15.00
2008,08,20,03,35,15.00
2008,08,20,03,36,15.00
2008,08,20,03,37,15.00
2008,08,20,03,38,14.90
2008,08,20,03,39,14.90
2008,08,20,03,40,14.90
2008,08,20,03,41,14.90
2008,08,20,03,42,14.90
2008,08,20,03,43,14.90
2008,08,20,03,44,14.90
2008,08,20,03,45,14.90
2008,08,20,03,46,14.90
2008,08,20,03,47,14.90
2008,08,20,03,48,14.90
2008,08,20,03,49,14.90
2008,08,20,03,50,14.90
2008,08,20,03,51,14.90
2008,08,20,03,52,14.90
2008,08,20,03,53,14.90
2008,08,20,03,54,14.90
2008,08,20,03,55,14.80
2008,08,20,03,56,14.80
2008,08,20,03,57,14.80
2008,08,20,03,58,14.80
2008,08,20,03,59,14.80
2008,08,20,04,00,14.80
2008,08,20,04,01,14.80
2008,08,20,04,02,14.80
2008,08,20,04,03,14.80
2008,08,20,04,04,14.80
2008,08,20,04,05,14.80
2008,08,20,04,06,14.80
2008,08,20,04,07,14.80
2008,08,20,04,08,14.80
2008,08,20,04,09,14.80
2008,08,20,04,10,14.80
2008,08,20,04,11,14.80
2008,08,20,04,12,14.80
2008,08,20,04,13,14.80
2008,08,20,04,14,14.80
2008,08,20,04,15,14.80
2008,08,20,04,16,14.80
2008,08,20,04,17,14.80
2008,08,20,04,18,14.80
2008,08,20,04,19,14.80
2008,08,20,04,20,14.80
2008,08,20,04,21,14.80
2008,08,20,04,22,14.80
2008,08,20,04,23,14.80
2008,08,20,04,24,14.80
2008,08,20,04,25,14.80
2008,08,20,04,26,14.80
2008,08,20,04,27,14.80
2008,08,20,04,28,14.80
2008,08,20,04,29,14.80
2008,08,20,04,30,14.80
2008,08,20,04,31,14.80
2008,08,20,04,32,14.80
2008,08,20,04,33,14.80
2008,08,20,04,34,14.80
2008,08,20,04,35,14.80
2008,08,20,04,36,14.80
2008,08,20,04,37,14.80
2008,08,20,04,38,14.80
2008,08,20,04,39,14.80
2008,08,20,04,40,14.80
2008,08,20,04,41,14.70
2008,08,20,04,42,14.70
2008,08,20,04,43,14.70
2008,08,20,04,44,14.70
2008,08,20,04,45,14.70
2008,08,20,04,46,14.70
2008,08,20,04,47,14.70
2008,08,20,04,48,14.60
2008,08,20,04,49,14.60
2008,08,20,04,50,14.60
2008,08,20,04,51,14.60
2008,08,20,04,52,14.60
2008,08,20,04,53,14.60
2008,08,20,04,54,14.60
2008,08,20,04,55,14.60
2008,08,20,04,56,14.50
2008,08,20,04,57,14.50
2008,08,20,04,58,14.50
2008,08,20,04,59,14.40
2008,08,20,05,00,14.40
2008,08,20,05,01,14.40
2008,08,20,05,02,14.40
2008,08,20,05,03,14.40
2008,08,20,05,04,14.30
2008,08,20,05,05,14.30
2008,08,20,05,06,14.30
2008,08,20,05,07,14.30
2008,08,20,05,08,14.30
2008,08,20,05,09,14.30
2008,08,20,05,10,14.30
2008,08,20,05,11,14.30
2008,08,20,05,12,14.30
2008,08,20,05,13,14.30
2008,08,20,05,14,14.30
2008,08,20,05,15,14.30
2008,08,20,05,16,14.30
2008,08,20,05,17,14.30
2008,08,20,05,18,14.30
2008,08,20,05,19,14.30
2008,08,20,05,20,14.30
2008,08,20,05,21,14.30
2008,08,20,05,22,14.20
2008,08,20,05,23,14.20
2008,08,20,05,24,14.20
2008,08,20,05,25,14.20
2008,08,20,05,26,14.20
2008,08,20,05,27,14.20
2008,08,20,05,28,14.20
2008,08,20,05,29,14.20
2008,08,20,05,30,14.20
2008,08,20,05,31,14.20
2008,08,20,05,32,14.20
2008,08,20,05,33,14.20
2008,08,20,05,34,14.20
2008,08,20,05,35,14.20
2008,08,20,05,36,14.20
2008,08,20,05,37,14.20
2008,08,20,05,38,14.20
2008,08,20,05,39,14.20
2008,08,20,05,40,14.20
2008,08,20,05,41,14.20
2008,08,20,05,42,14.20
2008,08,20,05,43,14.20
2008,08,20,05,44,14.20
2008,08,20,05,45,14.30
2008,08,20,05,46,14.30
2008,08,20,05,47,14.30
2008,08,20,05,48,14.30
2008,08,20,05,49,14.30
2008,08,20,05,50,14.30
2008,08,20,05,51,14.30
2008,08,20,05,52,14.30
2008,08,20,05,53,14.30
2008,08,20,05,54,14.30
2008,08,20,05,55,14.30
2008,08,20,05,56,14.30
2008,08,20,05,57,14.30
2008,08,20,05,58,14.30
2008,08,20,05,59,14.30
2008,08,20,06,00,14.30
2008,08,20,06,01,14.30
2008,08,20,06,02,14.30
2008,08,20,06,03,14.30
2008,08,20,06,04,14.30
2008,08,20,06,05,14.30
2008,08,20,06,06,14.20
2008,08,20,06,07,14.20
2008,08,20,06,08,14.20
2008,08,20,06,09,14.20
2008,08,20,06,10,14.20
2008,08,20,06,11,14.20
2008,08,20,06,12,14.20
2008,08,20,06,13,14.20
2008,08,20,06,14,14.20
2008,08,20,06,15,14.20
2008,08,20,06,16,14.20
2008,08,20,06,17,14.20
2008,08,20,06,18,14.10
2008,08,20,06,19,14.10
2008,08,20,06,20,14.10
2008,08,20,06,21,14.00
2008,08,20,06,22,14.00
2008,08,20,06,23,13.90
2008,08,20,06,24,13.90
2008,08,20,06,25,13.80
2008,08,20,06,26,13.80
2008,08,20,06,27,13.80
2008,08,20,06,28,13.80
2008,08,20,06,29,13.80
2008,08,20,06,30,13.70
2008,08,20,06,31,13.70
2008,08,20,06,32,13.60
2008,08,20,06,33,13.60
2008,08,20,06,34,13.60
2008,08,20,06,35,13.60
2008,08,20,06,36,13.50
2008,08,20,06,37,13.40
2008,08,20,06,38,13.40
2008,08,20,06,39,13.40
2008,08,20,06,40,13.30
2008,08,20,06,41,13.30
2008,08,20,06,42,13.30
2008,08,20,06,43,13.30
2008,08,20,06,44,13.30
2008,08,20,06,45,13.40
2008,08,20,06,46,13.40
2008,08,20,06,47,13.40
2008,08,20,06,48,13.40
2008,08,20,06,49,13.40
2008,08,20,06,50,13.40
2008,08,20,06,51,13.40
2008,08,20,06,52,13.40
2008,08,20,06,53,13.40
2008,08,20,06,54,13.40
2008,08,20,06,55,13.40
2008,08,20,06,56,13.40
2008,08,20,06,57,13.40
2008,08,20,06,58,13.40
2008,08,20,06,59,13.40
2008,08,20,07,00,13.40
2008,08,20,07,01,13.40
2008,08,20,07,02,13.40
2008,08,20,07,03,13.40
2008,08,20,07,04,13.40
2008,08,20,07,05,13.40
2008,08,20,07,06,13.40
2008,08,20,07,07,13.40
2008,08,20,07,08,13.40
2008,08,20,07,09,13.40
2008,08,20,07,10,13.40
2008,08,20,07,11,13.40
2008,08,20,07,12,13.40
2008,08,20,07,13,13.40
2008,08,20,07,14,13.40
2008,08,20,07,15,13.40
2008,08,20,07,16,13.40
2008,08,20,07,17,13.40
2008,08,20,07,18,13.30
2008,08,20,07,19,13.30
2008,08,20,07,20,13.30
2008,08,20,07,21,13.30
2008,08,20,07,22,13.30
2008,08,20,07,23,13.30
2008,08,20,07,24,13.30
2008,08,20,07,25,13.30
2008,08,20,07,26,13.30
2008,08,20,07,27,13.20
2008,08,20,07,28,13.30
2008,08,20,07,29,13.20
2008,08,20,07,30,13.20
2008,08,20,07,31,13.20
2008,08,20,07,32,13.20
2008,08,20,07,33,13.20
2008,08,20,07,34,13.20
2008,08,20,07,35,13.20
2008,08,20,07,36,13.20
2008,08,20,07,37,13.20
2008,08,20,07,38,13.20
2008,08,20,07,39,13.20
2008,08,20,07,40,13.20
2008,08,20,07,41,13.20
2008,08,20,07,42,13.20
2008,08,20,07,43,13.20
2008,08,20,07,44,13.20
2008,08,20,07,45,13.10
2008,08,20,07,46,13.10
2008,08,20,07,47,13.10
2008,08,20,07,48,13.10
2008,08,20,07,49,13.10
2008,08,20,07,50,13.10
2008,08,20,07,51,13.10
2008,08,20,07,52,13.10
2008,08,20,07,53,13.10
2008,08,20,07,54,13.10
2008,08,20,07,55,13.10
2008,08,20,07,56,13.10
2008,08,20,07,57,13.10
2008,08,20,07,58,13.10
2008,08,20,07,59,13.10
2008,08,20,08,00,13.10
2008,08,20,08,01,13.10
2008,08,20,08,02,13.10
2008,08,20,08,03,13.10
2008,08,20,08,04,13.10
2008,08,20,08,05,13.10
2008,08,20,08,06,13.10
2008,08,20,08,07,13.10
2008,08,20,08,08,13.10
2008,08,20,08,09,13.10
2008,08,20,08,10,13.10
2008,08,20,08,11,13.10
2008,08,20,08,12,13.00
2008,08,20,08,13,13.00
2008,08,20,08,14,13.00
2008,08,20,08,15,12.90
2008,08,20,08,16,12.90
2008,08,20,08,17,12.90
2008,08,20,08,18,12.90
2008,08,20,08,19,12.80
2008,08,20,08,20,12.80
2008,08,20,08,21,12.80
2008,08,20,08,22,12.80
2008,08,20,08,23,12.80
2008,08,20,08,24,12.80
2008,08,20,08,25,12.70
2008,08,20,08,26,12.70
2008,08,20,08,27,12.70
2008,08,20,08,28,12.70
2008,08,20,08,29,12.70
2008,08,20,08,30,12.70
2008,08,20,08,31,12.70
2008,08,20,08,32,12.70
2008,08,20,08,33,12.70
2008,08,20,08,34,12.70
2008,08,20,08,35,12.70
2008,08,20,08,36,12.70
2008,08,20,08,37,12.70
2008,08,20,08,38,12.70
2008,08,20,08,39,12.70
2008,08,20,08,40,12.70
2008,08,20,08,41,12.70
2008,08,20,08,42,12.70
2008,08,20,08,43,12.70
2008,08,20,08,44,12.70
2008,08,20,08,45,12.70
2008,08,20,08,46,12.70
2008,08,20,08,47,12.70
2008,08,20,08,48,12.70
2008,08,20,08,49,12.60
2008,08,20,08,50,12.60
2008,08,20,08,51,12.60
2008,08,20,08,52,12.60
2008,08,20,08,53,12.60
2008,08,20,08,54,12.60
2008,08,20,08,55,12.60
2008,08,20,08,56,12.70
2008,08,20,08,57,12.70
2008,08,20,08,58,12.70
2008,08,20,08,59,12.70
2008,08,20,09,00,12.70
2008,08,20,09,01,12.70
2008,08,20,09,02,12.80
2008,08,20,09,03,12.80
2008,08,20,09,04,12.80
2008,08,20,09,05,12.80
2008,08,20,09,06,12.80
2008,08,20,09,07,12.70
2008,08,20,09,08,12.70
2008,08,20,09,09,12.70
2008,08,20,09,10,12.70
2008,08,20,09,11,12.70
2008,08,20,09,12,12.70
2008,08,20,09,13,12.60
2008,08,20,09,14,12.60
2008,08,20,09,15,12.60
2008,08,20,09,16,12.60
2008,08,20,09,17,12.50
2008,08,20,09,18,12.50
2008,08,20,09,19,12.40
2008,08,20,09,20,12.40
2008,08,20,09,21,12.40
2008,08,20,09,22,12.40
2008,08,20,09,23,12.40
2008,08,20,09,24,12.40
2008,08,20,09,25,12.40
2008,08,20,09,26,12.50
2008,08,20,09,27,12.50
2008,08,20,09,28,12.50
2008,08,20,09,29,12.50
2008,08,20,09,30,12.50
2008,08,20,09,31,12.50
2008,08,20,09,32,12.50
2008,08,20,09,33,12.50
2008,08,20,09,34,12.50
2008,08,20,09,35,12.50
2008,08,20,09,36,12.50
2008,08,20,09,37,12.50
2008,08,20,09,38,12.50
2008,08,20,09,39,12.50
2008,08,20,09,40,12.50
2008,08,20,09,41,12.60
2008,08,20,09,42,12.60
2008,08,20,09,43,12.70
2008,08,20,09,44,12.70
2008,08,20,09,45,12.70
2008,08,20,09,46,12.70
2008,08,20,09,47,12.70
2008,08,20,09,48,12.70
2008,08,20,09,49,12.70
2008,08,20,09,50,12.70
2008,08,20,09,51,12.70
2008,08,20,09,52,12.70
2008,08,20,09,53,12.80
2008,08,20,09,54,12.80
2008,08,20,09,55,12.80
2008,08,20,09,56,12.80
2008,08,20,09,57,12.80
2008,08,20,09,58,12.80
2008,08,20,09,59,12.80
2008,08,20,10,00,12.80
2008,08,20,10,01,12.80
2008,08,20,10,02,12.80
2008,08,20,10,03,12.80
2008,08,20,10,04,12.70
2008,08,20,10,05,12.70
2008,08,20,10,06,12.70
2008,08,20,10,07,12.70
2008,08,20,10,08,12.70
2008,08,20,10,09,12.70
2008,08,20,10,10,12.60
2008,08,20,10,11,12.60
2008,08,20,10,12,12.60
2008,08,20,10,13,12.60
2008,08,20,10,14,12.60
2008,08,20,10,15,12.60
2008,08,20,10,16,12.60
2008,08,20,10,17,12.60
2008,08,20,10,18,12.60
2008,08,20,10,19,12.60
2008,08,20,10,20,12.60
2008,08,20,10,21,12.60
2008,08,20,10,22,12.60
2008,08,20,10,23,12.60
2008,08,20,10,24,12.60
2008,08,20,10,25,12.60
2008,08,20,10,26,12.70
2008,08,20,10,27,12.70
2008,08,20,10,28,12.70
2008,08,20,10,29,12.70
2008,08,20,10,30,12.70
2008,08,20,10,31,12.70
2008,08,20,10,32,12.70
2008,08,20,10,33,12.70
2008,08,20,10,34,12.70
2008,08,20,10,35,12.70
2008,08,20,10,36,12.80
2008,08,20,10,37,12.80
2008,08,20,10,38,12.80
2008,08,20,10,39,12.80
2008,08,20,10,40,12.80
2008,08,20,10,41,12.80
2008,08,20,10,42,12.80
2008,08,20,10,43,12.80
2008,08,20,10,44,12.80
2008,08,20,10,45,12.80
2008,08,20,10,46,12.80
2008,08,20,10,47,12.80
2008,08,20,10,48,12.80
2008,08,20,10,49,12.90
2008,08,20,10,50,12.80
2008,08,20,10,51,12.90
2008,08,20,10,52,12.90
2008,08,20,10,53,12.90
2008,08,20,10,54,12.90
2008,08,20,10,55,12.90
2008,08,20,10,56,12.90
2008,08,20,10,57,12.90
2008,08,20,10,58,13.00
2008,08,20,10,59,13.00
2008,08,20,11,00,13.00
2008,08,20,11,01,13.00
2008,08,20,11,02,13.00
2008,08,20,11,03,13.10
2008,08,20,11,04,13.10
2008,08,20,11,05,13.10
2008,08,20,11,06,13.10
2008,08,20,11,07,13.20
2008,08,20,11,08,13.20
2008,08,20,11,09,13.20
2008,08,20,11,10,13.20
2008,08,20,11,11,13.30
2008,08,20,11,12,13.30
2008,08,20,11,13,13.30
2008,08,20,11,14,13.30
2008,08,20,11,15,13.40
2008,08,20,11,16,13.30
2008,08,20,11,17,13.30
2008,08,20,11,18,13.30
2008,08,20,11,19,13.30
2008,08,20,11,20,13.40
2008,08,20,11,21,13.40
2008,08,20,11,22,13.40
2008,08,20,11,23,13.50
2008,08,20,11,24,13.50
2008,08,20,11,25,13.50
2008,08,20,11,26,13.60
2008,08,20,11,27,13.60
2008,08,20,11,28,13.70
2008,08,20,11,29,13.70
2008,08,20,11,30,13.80
2008,08,20,11,31,13.90
2008,08,20,11,32,14.00
2008,08,20,11,33,14.00
2008,08,20,11,34,14.10
2008,08,20,11,35,14.10
2008,08,20,11,36,14.20
2008,08,20,11,37,14.20
2008,08,20,11,38,14.10
2008,08,20,11,39,14.10
2008,08,20,11,40,14.10
2008,08,20,11,41,14.10
2008,08,20,11,42,14.10
2008,08,20,11,43,14.10
2008,08,20,11,44,14.10
2008,08,20,11,45,14.10
2008,08,20,11,46,14.10
2008,08,20,11,47,14.10
2008,08,20,11,48,14.20
2008,08,20,11,49,14.20
2008,08,20,11,50,14.20
2008,08,20,11,51,14.20
2008,08,20,11,52,14.30
2008,08,20,11,53,14.30
2008,08,20,11,54,14.30
2008,08,20,11,55,14.40
2008,08,20,11,56,14.40
2008,08,20,11,57,14.40
2008,08,20,11,58,14.40
2008,08,20,11,59,14.50
2008,08,20,12,00,14.50
2008,08,20,12,01,14.60
2008,08,20,12,02,14.60
2008,08,20,12,03,14.60
2008,08,20,12,04,14.70
2008,08,20,12,05,14.70
2008,08,20,12,06,14.80
2008,08,20,12,07,14.80
2008,08,20,12,08,14.80
2008,08,20,12,09,14.80
2008,08,20,12,10,14.90
2008,08,20,12,11,15.00
2008,08,20,12,12,15.00
2008,08,20,12,13,15.00
2008,08,20,12,14,15.00
2008,08,20,12,15,15.00
2008,08,20,12,16,15.00
2008,08,20,12,17,15.00
2008,08,20,12,18,15.00
2008,08,20,12,19,15.10
2008,08,20,12,20,15.10
2008,08,20,12,21,15.10
2008,08,20,12,22,15.20
2008,08,20,12,23,15.20
2008,08,20,12,24,15.20
2008,08,20,12,25,15.20
2008,08,20,12,26,15.20
2008,08,20,12,27,15.20
2008,08,20,12,28,15.20
2008,08,20,12,29,15.30
2008,08,20,12,30,15.30
2008,08,20,12,31,15.30
2008,08,20,12,32,15.40
2008,08,20,12,33,15.40
2008,08,20,12,34,15.40
2008,08,20,12,35,15.40
2008,08,20,12,36,15.40
2008,08,20,12,37,15.40
2008,08,20,12,38,15.40
2008,08,20,12,39,15.50
2008,08,20,12,40,15.50
2008,08,20,12,41,15.60
2008,08,20,12,42,15.60
2008,08,20,12,43,15.60
2008,08,20,12,44,15.60
2008,08,20,12,45,15.60
2008,08,20,12,46,15.60
2008,08,20,12,47,15.60
2008,08,20,12,48,15.60
2008,08,20,12,49,15.60
2008,08,20,12,50,15.70
2008,08,20,12,51,15.70
2008,08,20,12,52,15.70
2008,08,20,12,53,15.70
2008,08,20,12,54,15.70
2008,08,20,12,55,15.70
2008,08,20,12,56,15.70
2008,08,20,12,57,15.70
2008,08,20,12,58,15.70
2008,08,20,12,59,15.70
2008,08,20,13,00,15.70
2008,08,20,13,01,15.70
2008,08,20,13,02,15.70
2008,08,20,13,03,15.70
2008,08,20,13,04,15.70
2008,08,20,13,05,15.60
2008,08,20,13,06,15.60
2008,08,20,13,07,15.50
2008,08,20,13,08,15.50
2008,08,20,13,09,15.40
2008,08,20,13,10,15.40
2008,08,20,13,11,15.30
2008,08,20,13,12,15.30
2008,08,20,13,13,15.30
2008,08,20,13,14,15.30
2008,08,20,13,15,15.30
2008,08,20,13,16,15.30
2008,08,20,13,17,15.30
2008,08,20,13,18,15.30
2008,08,20,13,19,15.30
2008,08,20,13,20,15.30
2008,08,20,13,21,15.30
2008,08,20,13,22,15.30
2008,08,20,13,23,15.30
2008,08,20,13,24,15.30
2008,08,20,13,25,15.30
2008,08,20,13,26,15.30
2008,08,20,13,27,15.30
2008,08,20,13,28,15.30
2008,08,20,13,29,15.20
2008,08,20,13,30,15.20
2008,08,20,13,31,15.20
2008,08,20,13,32,15.20
2008,08,20,13,33,15.20
2008,08,20,13,34,15.20
2008,08,20,13,35,15.10
2008,08,20,13,36,15.10
2008,08,20,13,37,15.10
2008,08,20,13,38,15.00
2008,08,20,13,39,15.00
2008,08,20,13,40,15.00
2008,08,20,13,41,15.00
2008,08,20,13,42,15.00
2008,08,20,13,43,15.00
2008,08,20,13,44,15.00
2008,08,20,13,45,15.00
2008,08,20,13,46,15.00
2008,08,20,13,47,15.00
2008,08,20,13,48,15.00
2008,08,20,13,49,15.00
2008,08,20,13,50,14.90
2008,08,20,13,51,14.90
2008,08,20,13,52,14.80
2008,08,20,13,53,14.80
2008,08,20,13,54,14.80
2008,08,20,13,55,14.70
2008,08,20,13,56,14.70
2008,08,20,13,57,14.70
2008,08,20,13,58,14.60
2008,08,20,13,59,14.60
2008,08,20,14,00,14.50
2008,08,20,14,01,14.50
2008,08,20,14,02,14.40
2008,08,20,14,03,14.40
2008,08,20,14,04,14.40
2008,08,20,14,05,14.40
2008,08,20,14,06,14.40
2008,08,20,14,07,14.40
2008,08,20,14,08,14.40
2008,08,20,14,09,14.40
2008,08,20,14,10,14.30
2008,08,20,14,11,14.30
2008,08,20,14,12,14.30
2008,08,20,14,13,14.30
2008,08,20,14,14,14.30
2008,08,20,14,15,14.30
2008,08,20,14,16,14.30
2008,08,20,14,17,14.30
2008,08,20,14,18,14.30
2008,08,20,14,19,14.30
2008,08,20,14,20,14.40
2008,08,20,14,21,14.40
2008,08,20,14,22,14.40
2008,08,20,14,23,14.40
2008,08,20,14,24,14.40
2008,08,20,14,25,14.40
2008,08,20,14,26,14.40
2008,08,20,14,27,14.40
2008,08,20,14,28,14.40
2008,08,20,14,29,14.40
2008,08,20,14,30,14.40
2008,08,20,14,31,14.40
2008,08,20,14,32,14.40
2008,08,20,14,33,14.40
2008,08,20,14,34,14.40
2008,08,20,14,35,14.40
2008,08,20,14,36,14.40
2008,08,20,14,37,14.30
2008,08,20,14,38,14.30
2008,08,20,14,39,14.30
2008,08,20,14,40,14.30
2008,08,20,14,41,14.30
2008,08,20,14,42,14.30
2008,08,20,14,43,14.30
2008,08,20,14,44,14.30
2008,08,20,14,45,14.30
2008,08,20,14,46,14.20
2008,08,20,14,47,14.20
2008,08,20,14,48,14.20
2008,08,20,14,49,14.20
2008,08,20,14,50,14.20
2008,08,20,14,51,14.20
2008,08,20,14,52,14.10
2008,08,20,14,53,14.10
2008,08,20,14,54,14.10
2008,08,20,14,55,14.10
2008,08,20,14,56,14.10
2008,08,20,14,57,14.10
2008,08,20,14,58,14.10
2008,08,20,14,59,14.00
2008,08,20,15,00,14.00
2008,08,20,15,01,14.00
2008,08,20,15,02,13.90
2008,08,20,15,03,13.90
2008,08,20,15,04,13.90
2008,08,20,15,05,13.90
2008,08,20,15,06,13.90
2008,08,20,15,07,13.90
2008,08,20,15,08,13.90
2008,08,20,15,09,13.90
2008,08,20,15,10,13.90
2008,08,20,15,11,13.90
2008,08,20,15,12,13.90
2008,08,20,15,13,13.90
2008,08,20,15,14,13.90
2008,08,20,15,15,13.90
2008,08,20,15,16,13.90
2008,08,20,15,17,13.90
2008,08,20,15,18,13.90
2008,08,20,15,19,13.90
2008,08,20,15,20,13.90
2008,08,20,15,21,13.90
2008,08,20,15,22,13.90
2008,08,20,15,23,14.00
2008,08,20,15,24,14.00
2008,08,20,15,25,14.00
2008,08,20,15,26,14.00
2008,08,20,15,27,14.10
2008,08,20,15,28,14.10
2008,08,20,15,29,14.10
2008,08,20,15,30,14.00
2008,08,20,15,31,14.10
2008,08,20,15,32,14.10
2008,08,20,15,33,14.10
2008,08,20,15,34,14.10
2008,08,20,15,35,14.10
2008,08,20,15,36,14.10
2008,08,20,15,37,14.10
2008,08,20,15,38,14.10
2008,08,20,15,39,14.10
2008,08,20,15,40,14.10
2008,08,20,15,41,14.10
2008,08,20,15,42,14.10
2008,08,20,15,43,14.10
2008,08,20,15,44,14.10
2008,08,20,15,45,14.10
2008,08,20,15,46,14.10
2008,08,20,15,47,14.10
2008,08,20,15,48,14.10
2008,08,20,15,49,14.10
2008,08,20,15,50,14.00
2008,08,20,15,51,14.00
2008,08,20,15,52,14.00
2008,08,20,15,53,14.00
2008,08,20,15,54,14.00
2008,08,20,15,55,14.00
2008,08,20,15,56,13.90
2008,08,20,15,57,13.90
2008,08,20,15,58,13.90
2008,08,20,15,59,13.90
2008,08,20,16,00,13.90
2008,08,20,16,01,13.90
2008,08,20,16,02,13.90
2008,08,20,16,03,13.90
2008,08,20,16,04,13.90
2008,08,20,16,05,13.90
2008,08,20,16,06,13.90
2008,08,20,16,07,13.90
2008,08,20,16,08,13.80
2008,08,20,16,09,13.80
2008,08,20,16,10,13.80
2008,08,20,16,11,13.80
2008,08,20,16,12,13.80
2008,08,20,16,13,13.80
2008,08,20,16,14,13.80
2008,08,20,16,15,13.80
2008,08,20,16,16,13.80
2008,08,20,16,17,13.80
2008,08,20,16,18,13.80
2008,08,20,16,19,13.80
2008,08,20,16,20,13.80
2008,08,20,16,21,13.70
2008,08,20,16,22,13.70
2008,08,20,16,23,13.70
2008,08,20,16,24,13.70
2008,08,20,16,25,13.70
2008,08,20,16,26,13.70
2008,08,20,16,27,13.70
2008,08,20,16,28,13.70
2008,08,20,16,29,13.70
2008,08,20,16,30,13.60
2008,08,20,16,31,13.60
2008,08,20,16,32,13.60
2008,08,20,16,33,13.60
2008,08,20,16,34,13.60
2008,08,20,16,35,13.60
2008,08,20,16,36,13.60
2008,08,20,16,37,13.60
2008,08,20,16,38,13.60
2008,08,20,16,39,13.70
2008,08,20,16,40,13.70
2008,08,20,16,41,13.70
2008,08,20,16,42,13.70
2008,08,20,16,43,13.70
2008,08,20,16,44,13.70
2008,08,20,16,45,13.70
2008,08,20,16,46,13.80
2008,08,20,16,47,13.80
2008,08,20,16,48,13.80
2008,08,20,16,49,13.80
2008,08,20,16,50,13.80
2008,08,20,16,51,13.80
2008,08,20,16,52,13.80
2008,08,20,16,53,13.80
2008,08,20,16,54,13.80
2008,08,20,16,55,13.90
2008,08,20,16,56,13.90
2008,08,20,16,57,13.90
2008,08,20,16,58,13.90
2008,08,20,16,59,13.90
2008,08,20,17,00,13.90
2008,08,20,17,01,14.00
2008,08,20,17,02,14.00
2008,08,20,17,03,14.00
2008,08,20,17,04,14.00
2008,08,20,17,05,14.10
2008,08,20,17,06,14.10
2008,08,20,17,07,14.10
2008,08,20,17,08,14.10
2008,08,20,17,09,14.10
2008,08,20,17,10,14.10
2008,08,20,17,11,14.10
2008,08,20,17,12,14.10
2008,08,20,17,13,14.10
2008,08,20,17,14,14.10
2008,08,20,17,15,14.10
2008,08,20,17,16,14.10
2008,08,20,17,17,14.10
2008,08,20,17,18,14.10
2008,08,20,17,19,14.10
2008,08,20,17,20,14.20
2008,08,20,17,21,14.20
2008,08,20,17,22,14.20
2008,08,20,17,23,14.20
2008,08,20,17,24,14.30
2008,08,20,17,25,14.30
2008,08,20,17,26,14.30
2008,08,20,17,27,14.30
2008,08,20,17,28,14.30
2008,08,20,17,29,14.40
2008,08,20,17,30,14.40
2008,08,20,17,31,14.40
2008,08,20,17,32,14.40
2008,08,20,17,33,14.30
2008,08,20,17,34,14.40
2008,08,20,17,35,14.30
2008,08,20,17,36,14.30
2008,08,20,17,37,14.30
2008,08,20,17,38,14.30
2008,08,20,17,39,14.30
2008,08,20,17,40,14.30
2008,08,20,17,41,14.30
2008,08,20,17,42,14.30
2008,08,20,17,43,14.30
2008,08,20,17,44,14.30
2008,08,20,17,45,14.30
2008,08,20,17,46,14.30
2008,08,20,17,47,14.30
2008,08,20,17,48,14.30
2008,08,20,17,49,14.30
2008,08,20,17,50,14.30
2008,08,20,17,51,14.30
2008,08,20,17,52,14.20
2008,08,20,17,53,14.20
2008,08,20,17,54,14.30
2008,08,20,17,55,14.30
2008,08,20,17,56,14.30
2008,08,20,17,57,14.20
2008,08,20,17,58,14.20
2008,08,20,17,59,14.20
2008,08,20,18,00,14.20
2008,08,20,18,01,14.20
2008,08,20,18,02,14.20
2008,08,20,18,03,14.20
2008,08,20,18,04,14.20
2008,08,20,18,05,14.20
2008,08,20,18,06,14.20
2008,08,20,18,07,14.20
2008,08,20,18,08,14.20